SAS930 KATL-EKCH

Flight info

Callsign SAS930
Flight time N/A
Altitude 37000
Route PHIIL3 HRTWL Q64 TYI DCT ORF AR9 ZIBUT DCT LARGE DCT JENYY DCT DOVEY/M085F370 DCT NOVOK DCT CARAC/N0493F390 DCT PORTI/M085F400 DCT 47N050W 49N040W 51N030W 53N020W DCT MALOT DCT GISTI/N0489F410 DCT MOLAK DCT MAC DCT NORBO DCT TLA DCT ROBEM DCT ERLOT DCT SURAT DCT PETIL DCT TESPI
Aircraft A359/H-SDE2E3GHIJ3J4J5LM1ORWXY/LB1D1

Departure

Time 2026-05-05 12:14
Airport Hartsfield Jackson Atlanta International Airport (KATL)

Arrival

Time N/A
Airport Copenhagen Kastrup Airport (EKCH)
Time Latitude Longitude Altitude Speed Heading
2026-05-05 11:51 33.63863 -84.42048 1042 ft 0 kts 90°
2026-05-05 12:06 33.63864 -84.42062 1032 ft 4 kts 90°
2026-05-05 12:07 33.63864 -84.42094 1032 ft 4 kts 94°
2026-05-05 12:07 33.63868 -84.42125 1042 ft 4 kts 114°
2026-05-05 12:07 33.63883 -84.42151 1044 ft 4 kts 145°
2026-05-05 12:07 33.63903 -84.42161 1044 ft 1 kts 179°
2026-05-05 12:10 33.63881 -84.42161 1042 ft 6 kts 180°
2026-05-05 12:10 33.63822 -84.42160 1042 ft 11 kts 180°
2026-05-05 12:11 33.63730 -84.42160 1042 ft 16 kts 180°
2026-05-05 12:11 33.63663 -84.42112 1042 ft 12 kts 107°
2026-05-05 12:11 33.63654 -84.41997 1042 ft 16 kts 88°
2026-05-05 12:11 33.63658 -84.41847 1041 ft 20 kts 88°
2026-05-05 12:12 33.63656 -84.41670 1041 ft 23 kts 91°
2026-05-05 12:12 33.63652 -84.41465 1041 ft 26 kts 91°
2026-05-05 12:12 33.63648 -84.41242 1041 ft 27 kts 91°
2026-05-05 12:12 33.63613 -84.41055 1041 ft 16 kts 146°
2026-05-05 12:13 33.63529 -84.41048 1041 ft 12 kts 181°
2026-05-05 12:13 33.63476 -84.41102 1041 ft 11 kts 240°
2026-05-05 12:13 33.63471 -84.41180 1040 ft 19 kts 271°
2026-05-05 12:13 33.63471 -84.41598 1040 ft 80 kts 269°
2026-05-05 12:14 33.63472 -84.42490 1043 ft 132 kts 271°
2026-05-05 12:14 33.63472 -84.43771 1154 ft 163 kts 270°
2026-05-05 12:14 33.63478 -84.45066 1806 ft 157 kts 268°
2026-05-05 12:14 33.63361 -84.46398 2223 ft 167 kts 258°
2026-05-05 12:15 33.63073 -84.47837 2423 ft 187 kts 251°
2026-05-05 12:15 33.62600 -84.49388 2606 ft 209 kts 244°
2026-05-05 12:15 33.61936 -84.51044 2838 ft 231 kts 242°
2026-05-05 12:15 33.61183 -84.52818 3258 ft 243 kts 242°
2026-05-05 12:16 33.60412 -84.54647 3887 ft 248 kts 242°
2026-05-05 12:16 33.59557 -84.56457 4507 ft 251 kts 232°
2026-05-05 12:16 33.58267 -84.57862 5121 ft 254 kts 209°
2026-05-05 12:16 33.56578 -84.58486 5726 ft 259 kts 186°
2026-05-05 12:17 33.54764 -84.58548 6425 ft 262 kts 181°
2026-05-05 12:17 33.52923 -84.58518 7060 ft 267 kts 180°
2026-05-05 12:17 33.51055 -84.58491 7699 ft 271 kts 181°
2026-05-05 12:17 33.49158 -84.58361 8343 ft 277 kts 172°
2026-05-05 12:18 33.47354 -84.57507 8989 ft 285 kts 146°
2026-05-05 12:18 33.46039 -84.55758 9606 ft 293 kts 119°
2026-05-05 12:18 33.45516 -84.53393 10184 ft 301 kts 92°
2026-05-05 12:18 33.45552 -84.50817 10477 ft 318 kts 89°
2026-05-05 12:19 33.45596 -84.48092 10738 ft 336 kts 90°
2026-05-05 12:19 33.45613 -84.45225 10998 ft 352 kts 90°
2026-05-05 12:19 33.45614 -84.42226 11258 ft 368 kts 91°
2026-05-05 12:19 33.45607 -84.39106 11518 ft 382 kts 90°
2026-05-05 12:20 33.45838 -84.35903 11956 ft 391 kts 78°
2026-05-05 12:20 33.46756 -84.32834 12460 ft 395 kts 61°
2026-05-05 12:20 33.48376 -84.30170 12981 ft 398 kts 47°
2026-05-05 12:20 33.50310 -84.27774 13515 ft 402 kts 44°
2026-05-05 12:21 33.52295 -84.25394 14010 ft 406 kts 44°
2026-05-05 12:21 33.54297 -84.22984 14512 ft 409 kts 44°
2026-05-05 12:21 33.56305 -84.20554 15004 ft 412 kts 44°
2026-05-05 12:21 33.58323 -84.18101 15495 ft 415 kts 44°
2026-05-05 12:22 33.60355 -84.15626 15999 ft 418 kts 44°
2026-05-05 12:22 33.62400 -84.13131 16497 ft 421 kts 43°
2026-05-05 12:22 33.64459 -84.10616 17019 ft 424 kts 43°
2026-05-05 12:22 33.66530 -84.08084 17522 ft 427 kts 43°
2026-05-05 12:23 33.68616 -84.05530 18062 ft 430 kts 43°
2026-05-05 12:23 33.70717 -84.02956 18543 ft 433 kts 42°
2026-05-05 12:23 33.72831 -84.00365 18977 ft 436 kts 42°
2026-05-05 12:23 33.74960 -83.97753 19418 ft 439 kts 42°
2026-05-05 12:24 33.77106 -83.95118 19876 ft 442 kts 42°
2026-05-05 12:24 33.79263 -83.92467 20328 ft 445 kts 41°
2026-05-05 12:24 33.81436 -83.89795 20803 ft 448 kts 42°
2026-05-05 12:24 33.83616 -83.87113 21285 ft 450 kts 42°
2026-05-05 12:25 33.85814 -83.84406 21762 ft 453 kts 41°
2026-05-05 12:25 33.88024 -83.81682 22244 ft 457 kts 41°
2026-05-05 12:25 33.90222 -83.78971 22727 ft 460 kts 41°
2026-05-05 12:25 33.92489 -83.76171 23213 ft 463 kts 41°
2026-05-05 12:26 33.94699 -83.73395 23678 ft 468 kts 44°
2026-05-05 12:26 33.96763 -83.70333 24081 ft 473 kts 49°
2026-05-05 12:26 33.98737 -83.67143 24482 ft 477 kts 49°
2026-05-05 12:26 34.00711 -83.63919 24879 ft 479 kts 49°
2026-05-05 12:27 34.02698 -83.60673 25273 ft 482 kts 48°
2026-05-05 12:27 34.04694 -83.57411 25669 ft 485 kts 48°
2026-05-05 12:27 34.06702 -83.54134 26067 ft 487 kts 48°
2026-05-05 12:27 34.08721 -83.50835 26477 ft 490 kts 48°
2026-05-05 12:28 34.10746 -83.47523 26868 ft 492 kts 48°
2026-05-05 12:28 34.12780 -83.44194 27229 ft 495 kts 48°
2026-05-05 12:28 34.14828 -83.40841 27584 ft 497 kts 48°
2026-05-05 12:28 34.16886 -83.37467 27954 ft 500 kts 47°
2026-05-05 12:29 34.18954 -83.34075 28290 ft 503 kts 47°
2026-05-05 12:29 34.21030 -83.30665 28647 ft 505 kts 47°
2026-05-05 12:29 34.23114 -83.27239 28993 ft 508 kts 47°
2026-05-05 12:29 34.25211 -83.23789 29311 ft 510 kts 47°
2026-05-05 12:30 34.27315 -83.20323 29617 ft 513 kts 47°
2026-05-05 12:30 34.29431 -83.16836 29940 ft 515 kts 47°
2026-05-05 12:30 34.31559 -83.13330 30184 ft 519 kts 47°
2026-05-05 12:30 34.33707 -83.09818 30500 ft 519 kts 46°
2026-05-05 12:31 34.35846 -83.06323 30975 ft 515 kts 46°
2026-05-05 12:31 34.37967 -83.02852 31475 ft 511 kts 45°
2026-05-05 12:31 34.40074 -82.99401 31909 ft 508 kts 45°
2026-05-05 12:31 34.42167 -82.95972 32303 ft 506 kts 44°
2026-05-05 12:32 34.44254 -82.92549 32678 ft 504 kts 44°
2026-05-05 12:32 34.46329 -82.89142 33085 ft 502 kts 44°
2026-05-05 12:32 34.48398 -82.85741 33463 ft 500 kts 43°
2026-05-05 12:32 34.50456 -82.82357 33833 ft 498 kts 43°
2026-05-05 12:33 34.52504 -82.78985 34216 ft 495 kts 43°
2026-05-05 12:33 34.54548 -82.75620 34441 ft 496 kts 44°
2026-05-05 12:33 34.56597 -82.72244 34633 ft 497 kts 44°
2026-05-05 12:33 34.58640 -82.68871 34853 ft 496 kts 44°
2026-05-05 12:34 34.60677 -82.65503 35099 ft 495 kts 44°
2026-05-05 12:34 34.62711 -82.62137 35339 ft 494 kts 44°
2026-05-05 12:34 34.64742 -82.58774 35542 ft 493 kts 44°
2026-05-05 12:34 34.66771 -82.55414 35737 ft 493 kts 44°
2026-05-05 12:35 34.68783 -82.52035 35935 ft 494 kts 44°
2026-05-05 12:35 34.70770 -82.48638 36146 ft 493 kts 44°
2026-05-05 12:35 34.72752 -82.45246 36359 ft 492 kts 44°
2026-05-05 12:35 34.74736 -82.41853 36515 ft 492 kts 44°
2026-05-05 12:36 34.76717 -82.38469 36728 ft 492 kts 44°
2026-05-05 12:36 34.78685 -82.35058 36880 ft 495 kts 46°
2026-05-05 12:36 34.80403 -82.31376 37047 ft 506 kts 55°
2026-05-05 12:36 34.81678 -82.27386 37095 ft 520 kts 64°
2026-05-05 12:37 34.83461 -82.18727 37081 ft 532 kts 70°
2026-05-05 12:37 34.84886 -82.09867 37081 ft 534 kts 70°
2026-05-05 12:38 34.86297 -82.01003 37101 ft 533 kts 70°
2026-05-05 12:38 34.87754 -81.92168 37100 ft 532 kts 70°
2026-05-05 12:39 34.89232 -81.83339 37099 ft 532 kts 70°
2026-05-05 12:39 34.90708 -81.74504 37090 ft 532 kts 70°
2026-05-05 12:40 34.92174 -81.65669 37079 ft 532 kts 70°
2026-05-05 12:40 34.93634 -81.56829 37075 ft 533 kts 70°
2026-05-05 12:41 34.95089 -81.47973 37100 ft 533 kts 71°
2026-05-05 12:41 34.96532 -81.39130 37093 ft 532 kts 71°
2026-05-05 12:42 34.97969 -81.30289 37075 ft 531 kts 71°
2026-05-05 12:42 34.99400 -81.21452 37075 ft 531 kts 71°
2026-05-05 12:43 35.00822 -81.12623 37076 ft 531 kts 71°
2026-05-05 12:43 35.02239 -81.03783 37080 ft 531 kts 71°
2026-05-05 12:44 35.03648 -80.94948 37084 ft 531 kts 71°
2026-05-05 12:44 35.05052 -80.86111 37093 ft 530 kts 72°
2026-05-05 12:45 35.06444 -80.77290 37082 ft 529 kts 72°
2026-05-05 12:45 35.07830 -80.68476 37094 ft 528 kts 72°
2026-05-05 12:46 35.09209 -80.59665 37106 ft 528 kts 72°
2026-05-05 12:46 35.10572 -80.50910 37107 ft 528 kts 74°
2026-05-05 12:47 35.11936 -80.42093 37099 ft 528 kts 74°
2026-05-05 12:47 35.13294 -80.33281 37103 ft 527 kts 74°
2026-05-05 12:48 35.14643 -80.24478 37115 ft 527 kts 75°
2026-05-05 12:48 35.15986 -80.15681 37116 ft 527 kts 75°
2026-05-05 12:49 35.17322 -80.06877 37111 ft 527 kts 75°
2026-05-05 12:49 35.18995 -79.98209 37106 ft 519 kts 64°
2026-05-05 12:50 35.21706 -79.90061 37103 ft 517 kts 62°
2026-05-05 12:50 35.24097 -79.83372 37092 ft 517 kts 61°
2026-05-05 12:51 35.26999 -79.75336 37083 ft 516 kts 62°
2026-05-05 12:51 35.29881 -79.67288 37099 ft 516 kts 62°
2026-05-05 12:52 35.32743 -79.59234 37107 ft 515 kts 62°
2026-05-05 12:52 35.35592 -79.51183 37113 ft 515 kts 62°
2026-05-05 12:53 35.38437 -79.43127 37112 ft 515 kts 62°
2026-05-05 12:53 35.41274 -79.35072 37113 ft 515 kts 63°
2026-05-05 12:54 35.45524 -79.22966 37121 ft 515 kts 63°
2026-05-05 12:55 35.48351 -79.14890 37124 ft 515 kts 63°
2026-05-05 12:55 35.51172 -79.06809 37127 ft 515 kts 63°
2026-05-05 12:56 35.53984 -78.98735 37128 ft 515 kts 64°
2026-05-05 12:56 35.56792 -78.90646 37121 ft 515 kts 64°
2026-05-05 12:57 35.59595 -78.82553 37108 ft 515 kts 64°
2026-05-05 12:57 35.62394 -78.74454 37117 ft 515 kts 64°
2026-05-05 12:58 35.65184 -78.66346 37105 ft 515 kts 64°
2026-05-05 12:58 35.67947 -78.58292 37116 ft 514 kts 64°
2026-05-05 12:59 35.70723 -78.50182 37126 ft 514 kts 64°
2026-05-05 12:59 35.73492 -78.42072 37125 ft 514 kts 64°
2026-05-05 13:00 35.77636 -78.29911 37120 ft 514 kts 64°
2026-05-05 13:01 35.83146 -78.13661 37124 ft 514 kts 64°
2026-05-05 13:01 35.85893 -78.05527 37133 ft 514 kts 64°
2026-05-05 13:02 35.88635 -77.97388 37104 ft 514 kts 64°
2026-05-05 13:02 35.91373 -77.89242 37109 ft 514 kts 65°
2026-05-05 13:03 35.94106 -77.81083 37119 ft 515 kts 65°
2026-05-05 13:03 35.96871 -77.72950 37118 ft 513 kts 61°
2026-05-05 13:04 36.00666 -77.65571 37128 ft 508 kts 50°
2026-05-05 13:04 36.04922 -77.58607 37125 ft 508 kts 49°
2026-05-05 13:05 36.09247 -77.51692 37124 ft 509 kts 49°
2026-05-05 13:05 36.13571 -77.44745 37118 ft 510 kts 50°
2026-05-05 13:06 36.17883 -77.37767 37112 ft 510 kts 50°
2026-05-05 13:06 36.22186 -77.30775 37116 ft 510 kts 50°
2026-05-05 13:07 36.26486 -77.23775 37119 ft 510 kts 50°
2026-05-05 13:07 36.30783 -77.16768 37127 ft 511 kts 50°
2026-05-05 13:08 36.35070 -77.09763 37118 ft 510 kts 50°
2026-05-05 13:08 36.39356 -77.02744 37115 ft 510 kts 50°
2026-05-05 13:09 36.43638 -76.95718 37109 ft 510 kts 50°
2026-05-05 13:09 36.47915 -76.88685 37100 ft 510 kts 50°
2026-05-05 13:10 36.52189 -76.81644 37091 ft 510 kts 51°
2026-05-05 13:10 36.56453 -76.74602 37112 ft 509 kts 51°
2026-05-05 13:11 36.60712 -76.67556 37117 ft 509 kts 51°
2026-05-05 13:11 36.64966 -76.60501 37120 ft 509 kts 51°
2026-05-05 13:12 36.69212 -76.53447 37118 ft 509 kts 51°
2026-05-05 13:12 36.73459 -76.46377 37110 ft 510 kts 51°
2026-05-05 13:13 36.77706 -76.39293 37110 ft 510 kts 51°
2026-05-05 13:13 36.81950 -76.32197 37108 ft 510 kts 51°
2026-05-05 13:14 36.86106 -76.25016 37091 ft 511 kts 57°
2026-05-05 13:14 36.88856 -76.16843 37091 ft 513 kts 77°
2026-05-05 13:15 36.89616 -76.07986 37098 ft 514 kts 88°
2026-05-05 13:15 36.89847 -75.99059 37090 ft 514 kts 89°
2026-05-05 13:16 36.90023 -75.90129 37089 ft 514 kts 89°
2026-05-05 13:16 36.90219 -75.81210 37089 ft 514 kts 89°
2026-05-05 13:17 36.90437 -75.72281 37089 ft 514 kts 89°
2026-05-05 13:17 36.90651 -75.63410 37094 ft 514 kts 89°
2026-05-05 13:18 36.90861 -75.54478 37094 ft 514 kts 89°
2026-05-05 13:18 36.91056 -75.45545 37102 ft 514 kts 89°
2026-05-05 13:19 36.91238 -75.36612 37094 ft 514 kts 89°
2026-05-05 13:19 36.91504 -75.27680 37100 ft 514 kts 88°
2026-05-05 13:20 36.91841 -75.18760 37105 ft 514 kts 88°
2026-05-05 13:20 36.92028 -75.09821 37105 ft 514 kts 89°
2026-05-05 13:21 36.92130 -75.00880 37110 ft 515 kts 90°
2026-05-05 13:21 36.92239 -74.91933 37110 ft 515 kts 89°
2026-05-05 13:22 36.92359 -74.82984 37110 ft 515 kts 89°
2026-05-05 13:22 36.92478 -74.74036 37110 ft 515 kts 89°
2026-05-05 13:23 36.92591 -74.65088 37108 ft 515 kts 89°
2026-05-05 13:23 36.92697 -74.56141 37113 ft 515 kts 90°
2026-05-05 13:24 36.92795 -74.47202 37128 ft 515 kts 90°
2026-05-05 13:24 36.92899 -74.38254 37115 ft 515 kts 89°
2026-05-05 13:25 36.93035 -74.29307 37121 ft 515 kts 89°
2026-05-05 13:25 36.93167 -74.20359 37127 ft 515 kts 89°
2026-05-05 13:26 36.93288 -74.11409 37121 ft 515 kts 89°
2026-05-05 13:26 36.93399 -74.02517 37124 ft 515 kts 90°
2026-05-05 13:27 36.93504 -73.93565 37124 ft 515 kts 90°
2026-05-05 13:27 36.93601 -73.84619 37130 ft 515 kts 90°
2026-05-05 13:28 36.93692 -73.75685 37132 ft 515 kts 90°
2026-05-05 13:28 36.93768 -73.66741 37132 ft 514 kts 90°
2026-05-05 13:29 36.93773 -73.57796 37138 ft 515 kts 91°
2026-05-05 13:29 36.93763 -73.48850 37137 ft 515 kts 90°
2026-05-05 13:30 36.93783 -73.39903 37138 ft 515 kts 90°
2026-05-05 13:30 36.93807 -73.30955 37140 ft 515 kts 90°
2026-05-05 13:31 36.93832 -73.22000 37143 ft 516 kts 91°
2026-05-05 13:31 36.93847 -73.13031 37143 ft 516 kts 91°
2026-05-05 13:32 36.93855 -73.04060 37151 ft 516 kts 91°
2026-05-05 13:32 36.93863 -72.95102 37150 ft 516 kts 91°
2026-05-05 13:33 36.93865 -72.86122 37154 ft 517 kts 91°
2026-05-05 13:33 36.93870 -72.77136 37154 ft 517 kts 90°
2026-05-05 13:34 36.95040 -72.68298 37159 ft 517 kts 70°
2026-05-05 13:34 36.98445 -72.60465 37163 ft 513 kts 49°
2026-05-05 13:35 37.03144 -72.53735 37159 ft 515 kts 45°
2026-05-05 13:35 37.07993 -72.47200 37156 ft 516 kts 45°
2026-05-05 13:36 37.12871 -72.40605 37156 ft 516 kts 45°
2026-05-05 13:36 37.17714 -72.33980 37159 ft 516 kts 45°
2026-05-05 13:37 37.22549 -72.27323 37159 ft 516 kts 46°
2026-05-05 13:37 37.26568 -72.21778 37163 ft 517 kts 46°
2026-05-05 13:38 37.31407 -72.15089 37162 ft 517 kts 46°
2026-05-05 13:38 37.36235 -72.08403 37165 ft 516 kts 46°
2026-05-05 13:39 37.41050 -72.01723 37159 ft 516 kts 46°
2026-05-05 13:39 37.45865 -71.95028 37159 ft 516 kts 46°
2026-05-05 13:40 37.50676 -71.88326 37158 ft 515 kts 46°
2026-05-05 13:40 37.55477 -71.81622 37159 ft 515 kts 46°
2026-05-05 13:41 37.60274 -71.74911 37156 ft 515 kts 46°
2026-05-05 13:41 37.65068 -71.68191 37162 ft 515 kts 46°
2026-05-05 13:42 37.69855 -71.61466 37160 ft 514 kts 46°
2026-05-05 13:42 37.74626 -71.54750 37147 ft 513 kts 46°
2026-05-05 13:43 37.79387 -71.48033 37160 ft 514 kts 46°
2026-05-05 13:43 37.84154 -71.41295 37154 ft 514 kts 47°
2026-05-05 13:44 37.88913 -71.34552 37156 ft 513 kts 47°
2026-05-05 13:44 37.93656 -71.27818 37154 ft 512 kts 47°
2026-05-05 13:45 37.98393 -71.21080 37148 ft 512 kts 47°
2026-05-05 13:45 38.03126 -71.14333 37157 ft 512 kts 47°
2026-05-05 13:46 38.07851 -71.07583 37148 ft 511 kts 47°
2026-05-05 13:46 38.12566 -71.00833 37149 ft 511 kts 47°
2026-05-05 13:47 38.17271 -70.94083 37152 ft 511 kts 47°
2026-05-05 13:47 38.21978 -70.87316 37156 ft 511 kts 47°
2026-05-05 13:48 38.26678 -70.80544 37143 ft 510 kts 47°
2026-05-05 13:48 38.31371 -70.73768 37151 ft 510 kts 47°
2026-05-05 13:49 38.36059 -70.66985 37149 ft 510 kts 47°
2026-05-05 13:49 38.40743 -70.60194 37156 ft 510 kts 47°
2026-05-05 13:50 38.45417 -70.53402 37133 ft 509 kts 47°
2026-05-05 13:50 38.50057 -70.46645 37148 ft 510 kts 47°
2026-05-05 13:51 38.54759 -70.39784 37144 ft 510 kts 47°
2026-05-05 13:51 38.59390 -70.33012 37153 ft 509 kts 48°
2026-05-05 13:52 38.64037 -70.26201 37146 ft 508 kts 48°
2026-05-05 13:52 38.68676 -70.19388 37134 ft 508 kts 48°
2026-05-05 13:53 38.73317 -70.12556 37145 ft 509 kts 48°
2026-05-05 13:53 38.77960 -70.05709 37149 ft 508 kts 48°
2026-05-05 13:54 38.82590 -69.98864 37142 ft 508 kts 48°
2026-05-05 13:54 38.87215 -69.92013 37145 ft 508 kts 48°
2026-05-05 13:55 38.91831 -69.85160 37135 ft 508 kts 48°
2026-05-05 13:55 38.96453 -69.78283 37144 ft 509 kts 48°
2026-05-05 13:56 39.01074 -69.71392 37140 ft 509 kts 48°
2026-05-05 13:56 39.05691 -69.64493 37148 ft 509 kts 48°
2026-05-05 13:57 39.10304 -69.57585 37150 ft 508 kts 48°
2026-05-05 13:57 39.14908 -69.50675 37143 ft 508 kts 48°
2026-05-05 13:58 39.19511 -69.43752 37145 ft 509 kts 48°
2026-05-05 13:58 39.24111 -69.36817 37146 ft 509 kts 49°
2026-05-05 13:59 39.30930 -69.26338 37139 ft 509 kts 52°
2026-05-05 14:00 39.36365 -69.16394 37139 ft 509 kts 54°
2026-05-05 14:00 39.41104 -69.07604 37153 ft 510 kts 54°
2026-05-05 14:01 39.45191 -69.00181 37148 ft 509 kts 53°
2026-05-05 14:01 39.49316 -68.92733 37150 ft 509 kts 53°
2026-05-05 14:02 39.53436 -68.85281 37138 ft 509 kts 53°
2026-05-05 14:02 39.57551 -68.77811 37156 ft 509 kts 53°
2026-05-05 14:03 39.61663 -68.70328 37151 ft 509 kts 53°
2026-05-05 14:03 39.65762 -68.62848 37153 ft 509 kts 53°
2026-05-05 14:04 39.69860 -68.55352 37156 ft 509 kts 54°
2026-05-05 14:04 39.73956 -68.47845 37153 ft 509 kts 54°
2026-05-05 14:05 39.78046 -68.40329 37156 ft 509 kts 54°
2026-05-05 14:05 39.82130 -68.32808 37155 ft 509 kts 54°
2026-05-05 14:06 39.86208 -68.25277 37156 ft 509 kts 54°
2026-05-05 14:06 39.90283 -68.17737 37154 ft 509 kts 54°
2026-05-05 14:07 39.94805 -68.10695 37158 ft 506 kts 40°
2026-05-05 14:07 40.00349 -68.05102 37152 ft 504 kts 34°
2026-05-05 14:08 40.06072 -67.99799 37158 ft 505 kts 33°
2026-05-05 14:08 40.11814 -67.94530 37153 ft 504 kts 33°
2026-05-05 14:09 40.17543 -67.89229 37150 ft 504 kts 33°
2026-05-05 14:09 40.23263 -67.83901 37158 ft 505 kts 33°
2026-05-05 14:10 40.28968 -67.78569 37145 ft 503 kts 33°
2026-05-05 14:10 40.34657 -67.73240 37137 ft 502 kts 33°
2026-05-05 14:11 40.40344 -67.67905 37174 ft 503 kts 33°
2026-05-05 14:11 40.46017 -67.62572 37141 ft 502 kts 33°
2026-05-05 14:12 40.51687 -67.57230 37138 ft 501 kts 33°
2026-05-05 14:12 40.57354 -67.51880 37136 ft 502 kts 33°
2026-05-05 14:13 40.63024 -67.46516 37131 ft 502 kts 33°
2026-05-05 14:13 40.68693 -67.41140 37138 ft 502 kts 33°
2026-05-05 14:14 40.74323 -67.35791 37146 ft 502 kts 33°
2026-05-05 14:14 40.79985 -67.30400 37135 ft 502 kts 33°
2026-05-05 14:15 40.85678 -67.24967 37136 ft 501 kts 34°
2026-05-05 14:15 40.91288 -67.19603 37138 ft 502 kts 33°
2026-05-05 14:16 40.96935 -67.14190 37132 ft 501 kts 33°
2026-05-05 14:16 41.02575 -67.08774 37124 ft 501 kts 33°
2026-05-05 14:17 41.08090 -67.03130 37140 ft 503 kts 41°
2026-05-05 14:17 41.12359 -66.95803 37127 ft 505 kts 61°
2026-05-05 14:18 41.14950 -66.87130 37125 ft 507 kts 70°
2026-05-05 14:18 41.17134 -66.78205 37129 ft 509 kts 72°
2026-05-05 14:19 41.19275 -66.69243 37132 ft 509 kts 71°
2026-05-05 14:19 41.21437 -66.60291 37135 ft 508 kts 71°
2026-05-05 14:20 41.23606 -66.51365 37132 ft 509 kts 71°
2026-05-05 14:20 41.25779 -66.42411 37140 ft 509 kts 71°
2026-05-05 14:21 41.27945 -66.33446 37137 ft 509 kts 71°
2026-05-05 14:21 41.30103 -66.24473 37132 ft 509 kts 71°
2026-05-05 14:22 41.32255 -66.15487 37137 ft 510 kts 71°
2026-05-05 14:22 41.34402 -66.06494 37147 ft 510 kts 71°
2026-05-05 14:23 41.36178 -65.99024 37145 ft 510 kts 71°
2026-05-05 14:23 41.38311 -65.90022 37144 ft 510 kts 71°
2026-05-05 14:24 41.40443 -65.80987 37151 ft 512 kts 71°
2026-05-05 14:24 41.42568 -65.71944 37151 ft 511 kts 71°
2026-05-05 14:25 41.44682 -65.62914 37151 ft 510 kts 71°
2026-05-05 14:25 41.46791 -65.53871 37151 ft 512 kts 71°
2026-05-05 14:26 41.48899 -65.44794 37158 ft 513 kts 71°
2026-05-05 14:26 41.50985 -65.35778 37160 ft 512 kts 71°
2026-05-05 14:27 41.53077 -65.26695 37157 ft 512 kts 71°
2026-05-05 14:27 41.55167 -65.17588 37162 ft 514 kts 71°
2026-05-05 14:28 41.57252 -65.08462 37164 ft 514 kts 71°
2026-05-05 14:28 41.59330 -64.99329 37162 ft 514 kts 71°
2026-05-05 14:29 41.61403 -64.90185 37168 ft 515 kts 71°
2026-05-05 14:29 41.63470 -64.81025 37162 ft 515 kts 72°
2026-05-05 14:30 41.65530 -64.71859 37170 ft 515 kts 72°
2026-05-05 14:30 41.67581 -64.62695 37168 ft 515 kts 72°
2026-05-05 14:31 41.69627 -64.53515 37185 ft 515 kts 72°
2026-05-05 14:31 41.71663 -64.44342 37167 ft 514 kts 72°
2026-05-05 14:32 41.73688 -64.35175 37162 ft 513 kts 72°